Wetbulb
60.79 61.13 61.87 61.62 62.92 63.09 62.09 62.61 59.44 56.52 57.31 60.38 60.61 63.61 63.97 64.74 64.27 63.57 63.33 61.06 61.49 59.37 59.54 59.37 59.94 60.48 60.97 61.01 61.17 61.09 61.16 61.01 61.25 61.29 62.23 63.05 62.79 62.48
61.28 62.24 61.55 62.24 62.18 62.16 62.26 62.28 60.86 60.11 56.94 60.86 61.34 62.93 63.66 63.90 64.09 62.67 62.37 61.53 60.02 59.40 59.32 58.70 58.24 58.43 58.90 58.89 58.87 59.32 59.72 59.58 59.43 59.60 59.65 60.34 61.12 61.94
61.46 61.90 61.18 61.84 62.00 61.66 62.00 62.42 60.78 61.35 58.73 60.54 62.16 62.99 62.39 62.16 62.09 61.90 62.24 61.53 60.44 58.52 58.93 57.84 56.84 56.69 57.17 57.13 57.09 57.54 57.72 57.97 57.85 58.16 58.48 58.64 58.68 59.27
61.28 61.44 60.67 61.25 61.51 61.16 61.91 61.22 61.22 61.75 60.38 58.33 60.30 60.77 61.18 61.28 60.52 60.13 60.50 60.30 60.20 58.53 57.74 56.94 56.18 55.45 55.03 54.83 54.51 54.26 53.66 53.19 53.47 54.24 54.70 55.34 56.10 56.42
61.85 61.17 60.93 61.39 61.09 61.16 61.41 61.06 61.22 61.54 61.11 60.11 59.05 60.20 60.26 60.22 58.85 58.96 58.10 58.00 57.83 58.47 56.67 55.63 54.79 54.29 53.91 53.76 53.02 52.43 51.43 50.44 49.63 50.12 50.80 51.10 51.40 51.59
61.30 61.24 61.65 61.20 60.89 60.87 60.89 60.57 60.91 60.66 60.43 59.89 58.95 57.65 58.35 58.23 59.19 58.49 58.14 58.14 57.21 56.33 55.77 54.40 53.74 53.48 53.00 53.28 53.91 54.28 51.87 49.69 48.25 48.22 48.07 47.82 47.68 48.30
61.24 61.06 61.42 60.54 59.04 60.02 61.13 60.57 60.92 59.95 59.73 58.77 57.63 57.06 56.64 57.39 58.03 57.32 57.54 56.38 56.63 57.61 56.58 54.67 55.36 55.31 54.49 53.01 53.57 51.98 48.89 47.78 47.15 47.17 46.93 46.15 45.24 45.40
60.29 60.16 60.01 57.82 56.12 54.58 55.50 55.90 59.06 60.15 58.55 59.10 57.74 57.56 57.24 58.08 55.64 56.36 55.69 55.99 54.42 56.23 56.72 54.09 55.40 53.11 53.26 53.56 49.12 47.87 47.22 46.82 46.64 46.29 45.70 44.82 43.76 43.07
60.35 60.92 61.16 60.08 59.68 59.39 53.83 53.77 54.28 54.34 55.69 59.58 58.88 58.69 57.47 57.58 56.63 54.98 55.21 55.50 55.93 56.58 57.40 53.16 53.71 51.22 51.71 50.84 47.06 46.36 46.10 45.77 45.58 45.33 44.79 43.95 42.70 41.79
61.35 61.28 61.23 61.00 58.91 60.13 60.39 60.04 60.16 59.99 59.69 59.57 60.04 59.55 60.38 58.85 59.09 57.98 57.18 56.62 55.62 55.19 57.36 53.23 52.05 51.83 51.08 52.22 47.58 46.41 45.42 44.82 44.68 44.68 44.21 43.10 41.97 41.27
61.52 60.45 60.85 60.79 48.11 51.23 60.24 58.38 55.10 54.29 48.20 49.99 49.33 47.79 47.36 48.28 53.60 57.73 57.11 58.06 56.52 54.57 53.44 53.24 51.26 51.38 51.62 50.06 49.73 46.17 45.00 44.53 44.16 43.82 43.69 43.08 42.06 41.38
59.28 59.15 52.68 56.72 45.64 48.47 57.00 55.25 54.29 53.20 52.82 50.53 50.68 50.35 51.14 50.73 49.12 59.73 58.24 56.59 52.03 52.19 53.73 52.48 50.35 50.40 49.28 50.47 48.82 47.81 48.02 44.45 43.54 42.61 42.34 42.31 41.54 44.02
58.15 57.58 58.27 48.53 45.01 43.59 48.32 54.88 53.71 51.71 48.04 49.93 50.36 51.61 52.87 53.62 53.88 55.79 57.37 55.12 52.13 52.59 53.18 52.97 50.93 49.92 48.33 47.45 48.49 46.62 46.58 44.73 44.30 43.79 41.97 41.12 40.77 40.95
57.22 56.89 55.26 43.96 43.18 42.51 47.35 45.56 42.61 47.14 53.43 53.24 53.05 53.09 52.88 52.33 52.08 52.12 53.21 53.07 53.47 54.19 54.11 54.00 49.59 48.51 46.86 44.73 44.19 44.03 43.74 44.83 43.54 42.56 43.03 41.98 40.82 40.16
56.98 52.53 43.77 41.40 41.22 43.27 42.72 41.65 42.42 53.43 54.98 54.59 54.11 53.56 52.72 51.06 50.44 50.15 51.02 50.42 49.07 49.48 50.62 51.16 48.87 46.93 45.93 43.74 42.06 39.43 39.87 42.00 42.94 42.25 42.10 41.37 41.03 41.57
47.05 46.51 44.07 43.84 43.02 45.40 45.49 45.34 50.78 54.71 55.61 54.92 53.28 50.85 49.22 49.03 48.48 49.82 48.35 47.83 46.35 44.88 46.25 46.94 46.49 46.19 43.17 41.54 40.06 38.43 39.93 38.59 41.56 41.38 41.02 40.40 40.34 41.37
45.99 46.75 46.93 47.31 46.55 46.10 46.27 47.60 49.97 53.46 54.03 51.19 50.26 48.76 48.38 48.12 47.40 48.69 48.48 47.60 45.66 44.28 43.69 43.62 44.37 44.68 44.09 42.59 39.46 37.88 38.51 39.65 40.30 39.44 38.67 37.16 38.46 39.65
47.90 47.90 48.19 48.15 48.36 47.20 46.31 46.02 48.72 51.57 53.08 51.07 49.83 49.40 48.46 48.06 47.28 47.10 47.83 45.92 42.06 42.21 40.87 41.52 42.06 40.91 39.75 40.58 39.88 36.80 37.96 37.77 38.15 37.76 37.39 35.44 34.65 37.27
51.89 48.78 49.49 49.27 49.80 49.39 48.01 47.34 48.40 51.81 51.06 50.28 49.56 48.90 48.33 47.92 46.34 46.33 45.48 43.61 41.97 41.92 39.66 41.11 40.47 38.24 35.81 34.89 38.82 38.42 35.31 35.96 35.35 34.69 35.21 34.90 34.02 35.37
49.03 50.32 49.80 49.31 48.99 49.13 48.88 48.24 49.68 49.64 50.23 49.04 48.04 48.05 48.36 46.91 46.29 44.73 42.69 41.11 40.33 39.08 39.91 40.00 39.39 38.41 36.47 36.42 37.62 37.67 34.65 34.72 34.23 33.60 33.66 34.88 35.34 34.36
47.88 48.73 50.27 49.93 47.95 47.50 48.25 49.15 50.47 49.59 49.07 48.14 47.31 47.26 47.29 47.16 45.88 43.85 42.00 38.29 38.01 40.17 38.48 38.92 39.98 33.39 39.80 38.42 34.82 33.78 34.84 34.96 34.84 34.49 33.81 33.28 32.53 33.11
48.68 48.95 50.06 49.92 49.07 47.12 45.84 47.20 49.14 47.29 47.25 47.42 47.02 46.69 46.67 46.86 45.52 43.32 42.32 41.72 41.77 41.22 40.23 39.10 39.07 37.45 35.61 33.09 31.82 30.76 32.36 33.14 34.35 34.11 34.31 33.13 32.55 28.83
50.34 49.88 50.12 50.68 50.29 49.14 47.95 47.21 48.32 48.15 48.16 47.26 46.24 45.32 45.10 45.22 44.10 42.43 41.79 41.06 40.41 39.73 37.76 34.61 33.43 34.06 32.42 30.90 30.48 30.59 29.51 29.74 30.91 31.42 32.74 32.80 32.84 33.53
MSLP
1010.99 1011.10 1011.16 1011.52 1011.76 1011.63 1011.96 1012.50 1013.26 1014.13 1014.80 1015.34 1015.56 1016.33 1017.28 1017.97 1018.89 1019.56 1020.23 1020.88 1021.51 1022.00 1022.30 1022.58 1022.94 1023.41 1023.53 1023.87 1024.31 1024.62 1024.66 1024.82 1025.06 1024.97 1025.15 1025.03 1025.12 1025.20
1011.02 1011.02 1011.35 1011.47 1011.92 1012.25 1012.39 1012.82 1013.34 1014.12 1014.96 1015.61 1016.08 1016.89 1017.79 1018.23 1019.44 1020.13 1020.81 1021.27 1021.65 1022.09 1022.39 1022.62 1023.00 1023.38 1023.56 1023.81 1024.17 1024.36 1024.66 1024.86 1024.90 1025.00 1024.95 1024.99 1024.93 1024.93
1011.17 1011.17 1011.42 1011.52 1012.02 1012.52 1013.00 1013.29 1013.80 1014.24 1015.19 1016.11 1016.69 1017.53 1018.32 1019.13 1020.01 1020.73 1021.07 1021.34 1021.68 1022.01 1022.44 1022.74 1023.16 1023.36 1023.34 1023.60 1024.25 1024.43 1024.89 1024.74 1024.70 1024.69 1024.72 1024.66 1024.69 1024.56
1011.32 1011.48 1011.79 1012.10 1012.36 1012.82 1013.24 1013.84 1014.41 1014.76 1015.40 1016.34 1017.40 1018.12 1018.78 1019.70 1020.52 1021.12 1021.40 1021.74 1021.93 1022.13 1022.51 1022.95 1023.13 1023.26 1023.64 1023.93 1024.32 1024.54 1024.64 1024.60 1024.58 1024.53 1024.73 1024.54 1024.53 1024.52
1011.72 1011.98 1012.21 1012.42 1012.90 1013.43 1013.93 1014.39 1014.78 1015.42 1016.00 1016.66 1017.32 1018.01 1019.08 1020.08 1020.94 1021.37 1021.59 1021.84 1021.80 1022.12 1022.59 1022.80 1023.05 1023.31 1023.69 1023.92 1024.34 1024.41 1024.25 1024.24 1024.48 1024.72 1024.57 1024.76 1024.63 1024.37
1012.19 1012.39 1012.59 1012.96 1013.36 1013.70 1014.13 1014.55 1015.17 1015.82 1016.60 1017.38 1018.03 1018.60 1019.70 1020.57 1020.98 1021.21 1021.77 1021.93 1022.13 1022.34 1022.52 1022.96 1023.08 1023.57 1023.71 1023.74 1023.66 1023.88 1024.34 1024.39 1024.53 1024.53 1024.59 1024.56 1024.53 1024.43
1012.65 1012.80 1013.09 1013.54 1013.88 1014.20 1014.57 1015.20 1015.62 1016.31 1016.99 1017.56 1018.43 1019.24 1020.06 1020.75 1021.04 1021.37 1021.66 1022.12 1022.35 1022.26 1022.70 1023.16 1023.16 1023.28 1023.56 1023.73 1023.99 1024.36 1024.46 1024.42 1024.47 1024.58 1024.66 1024.66 1024.76 1024.87
1013.00 1013.47 1013.66 1013.92 1014.32 1014.68 1015.13 1015.59 1015.80 1016.45 1017.14 1017.58 1018.38 1019.00 1019.72 1020.28 1020.72 1020.94 1021.57 1022.12 1022.38 1022.48 1022.53 1023.58 1023.46 1023.66 1023.93 1024.40 1024.76 1024.77 1024.73 1024.73 1024.56 1024.91 1025.02 1024.95 1024.81 1024.27
1013.35 1013.77 1014.25 1014.67 1014.96 1015.34 1015.73 1016.10 1016.48 1016.95 1017.21 1017.48 1018.03 1018.57 1019.21 1019.55 1020.11 1020.91 1021.42 1021.65 1022.10 1022.57 1022.49 1023.79 1024.15 1024.38 1024.85 1024.81 1025.03 1025.07 1024.96 1025.06 1025.03 1024.69 1024.51 1024.64 1024.66 1024.70
1013.74 1014.10 1014.49 1015.02 1015.50 1015.82 1016.20 1016.71 1017.02 1017.29 1017.53 1017.72 1018.06 1018.42 1018.62 1019.20 1019.54 1020.20 1020.71 1021.48 1021.95 1022.51 1022.74 1023.78 1024.41 1024.60 1025.04 1025.24 1025.43 1025.08 1025.00 1024.97 1024.85 1024.97 1025.27 1025.04 1024.55 1024.51
1014.16 1014.51 1014.81 1015.41 1015.80 1016.04 1016.47 1016.99 1017.40 1017.81 1018.13 1018.10 1018.28 1018.54 1018.88 1019.24 1019.54 1020.04 1020.82 1021.20 1022.14 1022.53 1022.74 1023.33 1024.22 1024.53 1024.88 1025.16 1025.15 1024.84 1025.23 1025.72 1025.82 1025.56 1025.11 1024.72 1024.81 1024.60
1014.60 1015.05 1015.36 1015.77 1016.06 1016.35 1016.78 1017.23 1017.57 1017.80 1018.08 1018.56 1018.94 1019.05 1019.06 1019.47 1019.66 1019.62 1020.34 1020.85 1021.70 1022.36 1022.79 1023.62 1024.29 1024.44 1024.85 1025.15 1025.20 1025.62 1025.98 1026.04 1025.65 1025.40 1025.34 1025.20 1024.93 1024.44
1014.86 1015.28 1015.70 1016.07 1016.51 1016.61 1017.05 1017.36 1017.57 1017.75 1018.28 1018.59 1018.94 1019.06 1019.22 1019.42 1019.80 1020.09 1020.31 1020.51 1021.41 1022.10 1022.97 1023.23 1023.71 1024.03 1024.46 1025.10 1025.63 1025.93 1026.11 1026.03 1025.71 1025.52 1025.30 1025.04 1024.97 1024.76
1014.96 1015.37 1015.73 1016.18 1016.68 1017.02 1017.32 1017.54 1017.82 1018.08 1018.29 1018.65 1019.03 1019.60 1019.85 1020.23 1020.64 1020.81 1021.04 1021.24 1021.40 1021.66 1022.42 1022.51 1023.49 1023.99 1024.49 1025.21 1025.68 1026.10 1026.02 1026.12 1025.88 1025.45 1025.27 1025.14 1024.84 1024.62
1014.89 1015.31 1015.76 1016.20 1016.69 1017.14 1017.41 1017.65 1017.84 1018.08 1018.19 1018.74 1019.29 1019.75 1020.16 1020.68 1021.04 1021.37 1021.90 1022.07 1022.37 1022.84 1022.96 1023.05 1023.45 1024.36 1024.90 1025.55 1025.92 1026.21 1026.17 1025.97 1025.87 1025.75 1025.65 1025.31 1024.84 1024.60
1015.27 1015.83 1016.22 1016.62 1016.94 1017.20 1017.60 1017.79 1017.89 1018.01 1018.03 1018.46 1019.22 1019.96 1020.60 1021.06 1021.34 1021.49 1021.78 1022.21 1022.59 1023.75 1024.19 1024.19 1024.40 1024.64 1025.59 1026.17 1026.36 1026.38 1026.44 1026.15 1025.96 1025.89 1025.81 1025.39 1025.17 1025.04
1015.75 1016.34 1016.73 1017.03 1017.33 1017.61 1017.78 1017.94 1018.11 1018.15 1018.18 1018.70 1019.19 1019.84 1020.52 1020.98 1021.32 1021.50 1021.73 1022.20 1022.95 1024.12 1024.70 1025.07 1025.67 1025.58 1025.92 1026.49 1026.71 1026.72 1026.61 1026.52 1026.44 1026.31 1025.73 1025.45 1025.25 1025.26
1015.60 1016.09 1016.50 1016.77 1017.06 1017.26 1017.51 1017.82 1018.04 1018.10 1018.30 1018.74 1019.29 1019.66 1020.04 1020.57 1021.14 1021.86 1021.98 1022.37 1023.17 1024.14 1024.78 1025.46 1025.58 1026.00 1026.53 1027.15 1027.09 1026.96 1026.96 1026.82 1026.71 1026.51 1026.00 1025.74 1025.35 1025.05
1015.04 1015.61 1015.95 1016.30 1016.50 1016.76 1016.96 1017.12 1017.31 1017.77 1018.25 1018.67 1019.01 1019.40 1019.92 1020.54 1021.33 1021.84 1022.56 1023.20 1023.97 1024.75 1025.45 1025.78 1026.07 1026.05 1026.49 1026.72 1027.49 1027.68 1027.38 1027.23 1027.01 1026.58 1026.29 1025.96 1025.49 1025.04
1014.84 1014.91 1015.08 1015.30 1015.70 1016.10 1016.45 1016.67 1017.03 1017.58 1018.04 1018.50 1019.00 1019.39 1019.91 1020.40 1021.15 1021.94 1022.62 1023.27 1024.24 1024.99 1025.44 1026.46 1026.60 1026.38 1026.45 1026.63 1027.02 1027.48 1027.94 1027.48 1027.30 1026.70 1026.41 1026.04 1025.70 1025.38
1014.03 1014.05 1014.07 1014.40 1014.84 1015.30 1015.72 1016.14 1016.56 1017.14 1017.62 1018.21 1018.76 1019.21 1019.79 1020.25 1021.15 1021.94 1022.57 1023.16 1023.83 1024.50 1025.79 1026.53 1027.02 1027.11 1026.89 1027.07 1027.26 1027.44 1027.65 1027.86 1027.55 1027.18 1026.92 1026.13 1025.43 1025.10
1012.77 1012.97 1013.21 1013.58 1013.95 1014.42 1014.95 1015.56 1016.32 1017.06 1017.49 1017.80 1018.24 1018.83 1019.49 1019.99 1020.74 1021.57 1022.37 1023.11 1023.70 1024.03 1025.15 1026.59 1027.40 1026.86 1026.95 1027.38 1027.88 1028.07 1027.89 1027.54 1027.27 1027.36 1027.26 1027.04 1026.43 1025.81
1011.62 1011.83 1012.03 1012.33 1012.78 1013.42 1014.13 1014.56 1014.92 1015.65 1016.48 1017.19 1017.99 1018.85 1019.52 1020.13 1021.00 1021.89 1023.34 1023.76 1024.09 1025.35 1026.05 1027.06 1027.60 1027.62 1027.73 1028.10 1028.51 1028.51 1028.46 1028.10 1027.87 1027.60 1027.15 1026.88 1026.67 1026.49
Wind_Speed
4 4 2 3 2 4 5 6 5 4 2 5 3 11 9 8 10 7 7 10 10 9 9 8 9 9 10 8 7 7 6 6 6 6 7 7 10 12
3 6 5 4 5 5 5 5 5 6 4 2 6 11 9 8 11 8 7 8 9 7 7 8 8 8 7 7 8 6 5 5 6 6 8 8 9 10
5 6 7 7 6 7 5 6 7 8 9 6 7 10 11 11 8 6 5 3 4 7 6 6 7 8 8 6 6 4 5 5 5 6 7 9 10 10
6 7 8 7 8 7 7 8 8 7 9 13 5 4 11 10 6 6 4 3 4 6 7 7 7 7 6 4 2 3 4 5 6 7 9 10 11 13
6 7 8 10 9 8 8 8 8 8 8 7 5 3 6 5 4 3 3 3 2 5 7 6 4 2 1 2 2 1 4 6 6 6 7 7 8 10
7 6 7 10 11 9 8 9 9 9 9 9 7 6 4 3 2 3 3 1 2 1 2 3 5 4 5 4 3 5 5 7 7 6 6 7 7 7
7 6 7 10 10 10 8 8 10 8 7 7 5 3 3 3 4 3 3 2 1 1 2 4 4 5 6 8 9 8 8 8 6 6 6 4 4 5
8 8 7 10 9 12 12 9 8 8 8 6 3 5 5 4 3 4 4 3 2 1 4 7 5 7 6 6 7 8 7 7 6 3 2 3 5 10
8 8 8 6 9 10 11 12 10 10 4 4 7 4 4 6 6 4 3 3 2 2 4 6 3 7 5 6 6 6 7 8 8 11 14 14 13 12
7 7 9 9 7 9 9 6 4 3 1 1 3 4 3 7 6 4 4 6 4 4 1 4 2 3 3 5 6 8 11 14 16 14 10 9 7 7
7 6 8 8 8 10 7 6 3 2 5 4 4 3 5 10 8 6 4 4 3 1 2 3 3 4 3 4 6 16 18 13 10 10 11 13 11 7
4 5 9 8 8 7 5 4 4 4 5 6 5 6 6 5 7 3 6 6 4 2 2 2 2 3 4 2 7 8 6 10 9 11 11 11 11 9
5 4 4 9 9 4 5 4 2 6 7 6 5 5 5 6 3 2 3 5 4 3 3 3 2 2 3 2 2 5 4 6 7 7 8 11 11 9
5 3 3 6 6 8 5 5 8 6 6 6 6 4 5 5 5 7 9 9 7 7 5 4 5 2 2 2 2 4 4 4 7 8 9 9 7 7
3 4 8 8 9 6 3 7 8 4 6 5 5 4 4 7 9 9 10 12 13 10 7 7 7 5 4 3 2 4 4 2 7 8 8 8 9 9
7 6 6 6 5 5 5 4 4 4 5 6 5 6 7 6 6 5 8 8 9 8 10 10 8 5 5 5 4 4 4 4 7 8 7 7 9 9
8 4 2 2 3 3 2 3 3 4 5 5 7 7 8 7 6 6 7 5 7 6 5 6 7 9 6 4 2 4 4 3 5 7 6 8 7 8
3 3 3 4 5 5 4 4 3 5 5 7 7 8 9 8 8 5 6 7 8 7 5 2 3 3 2 5 7 4 3 5 6 6 7 7 6 8
3 4 5 7 7 7 6 6 5 5 5 7 7 7 7 7 8 8 7 7 8 7 3 4 3 2 2 1 4 11 5 5 6 6 6 7 6 7
3 5 7 7 7 7 7 6 5 5 6 7 7 7 7 9 9 8 7 8 7 3 6 3 1 2 2 2 2 3 6 6 5 6 7 5 5 8
8 7 6 7 7 7 7 7 7 7 7 7 7 8 8 9 9 8 8 10 11 7 5 3 1 2 3 3 2 2 4 7 8 6 7 5 7 3
7 8 8 6 7 8 7 7 6 6 7 8 8 8 8 9 10 10 10 11 8 8 7 5 1 3 3 2 2 2 3 6 8 9 8 10 5 7
9 9 8 9 8 7 6 8 10 9 9 9 9 8 8 9 7 7 5 5 8 7 6 4 1 3 4 3 1 1 4 5 4 5 5 14 14 10
Wind_Direction
132 166 156 123 152 104 120 137 134 144 120 89 91 107 118 115 108 107 132 129 128 144 152 162 163 170 178 175 191 207 217 234 249 259 262 263 266 267
129 137 117 134 112 106 105 101 95 122 109 72 95 115 123 101 108 104 107 119 142 150 163 168 171 179 175 182 202 218 236 248 258 268 283 287 284 286
106 110 106 115 110 100 104 96 99 107 106 103 106 117 111 112 103 98 116 130 146 151 163 174 180 188 186 198 223 239 264 279 289 287 284 289 291 288
103 101 96 103 101 99 98 100 108 103 114 119 119 123 125 122 116 121 147 128 139 154 166 186 189 194 203 208 252 294 318 326 322 323 322 323 318 316
96 104 118 117 110 110 112 114 108 107 110 105 103 82 101 107 105 110 115 105 100 145 183 189 182 187 192 89 71 17 344 353 340 323 337 339 351 357
90 98 105 115 121 123 113 109 111 114 118 122 107 85 91 93 98 128 133 139 114 112 99 72 70 88 90 101 80 46 27 27 28 24 17 11 356 342
88 89 78 100 109 121 126 123 124 124 124 119 107 104 113 144 165 153 106 93 90 121 114 47 55 69 66 70 80 73 71 70 67 49 26 356 329 321
102 98 103 97 96 99 103 91 111 132 129 130 125 143 146 146 142 132 125 157 156 68 96 69 73 83 83 88 76 84 85 77 76 96 93 59 35 22
114 121 114 114 113 107 91 94 101 107 101 125 140 144 143 165 144 134 158 157 121 99 103 90 88 95 81 73 61 71 56 44 52 49 48 40 30 16
119 123 125 115 102 114 115 117 112 84 75 138 161 174 175 159 156 154 145 114 100 80 24 115 165 109 92 84 39 50 51 46 45 41 46 46 29 4
123 119 126 120 126 124 116 117 87 93 46 111 89 102 144 141 143 124 125 121 89 130 63 108 153 141 138 94 66 47 43 45 48 39 28 25 5 345
90 106 99 120 131 134 107 127 150 161 136 114 110 82 95 149 150 77 151 142 134 91 113 99 124 174 156 79 56 51 54 27 29 24 13 10 7 7
142 143 152 143 153 161 113 144 159 135 119 119 114 95 78 91 96 80 123 131 134 99 132 158 121 84 75 105 97 46 45 27 25 19 5 9 351 2
156 161 155 171 166 167 177 176 122 128 127 116 110 105 106 104 90 89 88 83 69 102 129 131 108 123 113 89 47 8 3 33 15 13 4 349 337 353
155 164 144 157 156 160 194 139 146 159 135 138 146 138 130 117 110 96 91 91 74 59 62 75 99 98 75 93 92 10 352 341 9 7 355 355 354 355
101 89 96 98 84 104 110 155 183 182 159 151 146 128 128 135 134 135 116 108 95 81 54 59 79 97 100 86 74 28 8 349 355 357 345 348 353 360
110 100 104 106 132 152 147 165 169 156 149 138 143 143 147 147 140 134 130 123 117 129 114 78 59 67 68 133 84 22 0 352 349 343 344 354 357 351
102 148 174 180 181 184 180 177 188 181 167 156 156 158 156 154 145 140 130 124 122 123 114 83 119 117 117 82 48 19 5 352 344 341 6 352 345 0
150 171 185 192 202 198 192 189 188 187 153 164 164 163 153 147 146 143 124 115 113 118 78 78 74 109 150 183 136 53 12 352 337 355 4 357 332 343
200 192 205 199 199 198 197 202 191 170 179 170 167 160 155 150 146 140 135 129 124 100 98 74 25 85 187 110 119 65 37 4 342 355 352 330 316 306
208 217 209 198 197 195 199 198 191 184 177 168 164 159 156 153 145 140 137 145 145 142 135 145 221 29 100 104 80 18 353 10 20 5 346 329 343 317
205 215 216 208 199 194 188 184 179 166 172 174 168 161 159 156 152 150 154 156 161 142 118 114 207 94 71 72 94 3 340 352 7 356 16 22 355 338
211 212 212 210 202 187 184 183 181 176 174 166 161 155 153 149 144 126 81 75 104 112 105 121 71 48 82 70 107 49 4 0 345 336 348 358 347 339